Location: Mesa
(33.4220°N, 111.8220°W)
Time: 05:26:14
(UTC-07:00)

Hubble Space Telescope - Pass Details

Date: 26 November 2019
Orbit: 536 x 540 km, 28.5° (Epoch: 10 December)

Event Time Altitude Azimuth Distance (km) Brightness Sun altitude
Rises 17:44:22 0° 262° (W) 2,668 6.3 -5.5°
Reaches altitude 10° 17:46:43 10° 255° (WSW) 1,778 5.3 -5.9°
Maximum altitude 17:50:34 39° 186° (S) 812 2.0 -6.7°
Drops below altitude 10° 17:54:24 10° 117° (ESE) 1,778 3.0 -7.4°
Enters shadow 17:56:04 - 111° (ESE) 2,402 3.6 -7.7°
